Terminal Aerodrome Forecast
Issued by NWS Grand Forks, ND

Home | Current Version | Previous Version | Text Only | Print | Product List | Glossary On
Versions: 1 2 3 4 5 6 7 8 9 10 11 12 13 14 15 16 17 18 19 20 21 22 23
000
FTUS43 KFGF 250500
TAFGFK
TAF
KGFK 250520Z 2506/2606 VRB03KT 2SM BR OVC006
      TEMPO 2506/2510 VRB03KT 1/2SM FG OVC002
     FM251300 33006KT P6SM BKN015
     FM251700 35009KT P6SM BKN025=

USA.gov is the U.S. government's official web portal to all federal, state and local government web resources and services.